Location: Heathcote
(40.9845°N, 73.7746°W)
Time: 13:40:50
(UTC+00:00)

Cosmos 1689 Rocket - Pass Details

Date: 29 October 2020
Orbit: 360 x 374 km, 97.5° (Epoch: 01 December)

Event Time Altitude Azimuth Distance (km) Brightness Sun altitude
Exits shadow 22:55:31 - 14° (NNE) 2,224 5.7 -12.2°
Rises 22:55:34 0° 14° (NNE) 2,204 5.7 -12.2°
Reaches altitude 10° 22:57:31 10° 17° (NNE) 1,351 4.6 -12.5°
Maximum altitude 23:00:22 67° 101° (E) 394 1.8 -13.1°
Drops below altitude 10° 23:03:12 10° 185° (S) 1,338 5.0 -13.6°
Sets 23:05:08 0° 188° (S) 2,180 6.1 -14.0°
